Regional Weather Roundup
Issued by NWS Burlington, VT

Home | Current Version | Previous Version | Text Only | Print | Product List | Glossary On
Versions: 1 2 3 4 5 6 7 8 9 10 11 12 13 14 15 16 17 18 19 20 21 22 23 24 25 26 27 28 29 30 31 32 33 34 35 36 37 38 39 40 41 42 43 44 45 46 47 48 49 50
000
ASUS41 KBTV 301830
RWRBTV
VERMONT REGIONAL WEATHER ROUNDUP
NATIONAL WEATHER SERVICE BURLINGTON VT
200 PM EDT THU JUL 30 2015

NOTE: "FAIR" INDICATES FEW OR NO CLOUDS BELOW 12,000 FEET WITH NO
SIGNIFICANT WEATHER AND/OR OBSTRUCTIONS TO VISIBILITY.

* THESE REPORTS ARE NOT UNDER NWS QUALITY CONTROL AND/OR DO NOT
  REPORT WEATHER SUCH AS PRECIPITATION AND FOG.

VTZ001>019-301900-
_____VERMONT_____


CITY           SKY/WX    TMP DP  RH WIND       PRES   REMARKS
BURLINGTON     LGT RAIN  78  73  84 SW10      29.74S
6HR MIN TEMP:  78; 6HR MAX TEMP:  82; 6HR PCP:  0.04;

MONTPELIER     HVY RAIN  73  70  90 SW13      29.83R VSB 1
6HR MIN TEMP:  67; 6HR MAX TEMP:  81; 6HR PCP:  0.02;

MORRISVILLE    RAIN      78  73  84 S3        29.77S
6HR MIN TEMP:  68; 6HR MAX TEMP:  85; 6HR PCP: TRACE;

ST. JOHNSBURY*   N/A     82  68  62 MISG      29.74F
6HR MIN TEMP:  68; 6HR MAX TEMP:  83;

LYNDONVILLE*   LGT RAIN  78  69  73 SE9       29.79F
6HR MIN TEMP:  67; 6HR MAX TEMP:  81;

MIDDLEBURY*    CLOUDY    73  73 100 S6        29.79S
6HR MIN TEMP:  74; 6HR MAX TEMP:  83; 6HR PCP:  0.21;

SPRINGFIELD    PTSUNNY   84  70  62 S8        29.78S
6HR MIN TEMP:  68; 6HR MAX TEMP:  89;

HIGHGATE*      LGT RAIN  73  71  96 S7        29.72S
6HR MIN TEMP:  72; 6HR MAX TEMP:  81;

NEWPORT*       RAIN      73  71  93 W6        29.76R
6HR MIN TEMP:  73; 6HR MAX TEMP:  81;

BENNINGTON     LGT RAIN  81  71  71 S9        29.80F
6HR MIN TEMP:  75; 6HR MAX TEMP:  87; 6HR PCP: TRACE;

SUTTON*          N/A     77 N/A N/A MISG        N/A
GALLUP MILLS*    N/A     79 N/A N/A MISG        N/A
MT. MANSFIELD*   N/A     64 N/A N/A W21G38      N/A

_____LAKE CHAMPLAIN_____


CITY           SKY/WX    TMP DP  RH WIND       PRES   REMARKS
COLCHESTER RF*   N/A     75  72  88 W5          N/A
DIAMOND ISL*     N/A     75  73  94 S18         N/A

$$

NYZ007-026>031-035-052-083-301900-
_____NORTHERN NEW YORK_____


CITY           SKY/WX    TMP DP  RH WIND       PRES   REMARKS
PLATTSBURGH    CLOUDY    74  73  97 S3        29.72F FOG
6HR MIN TEMP:  71; 6HR MAX TEMP:  77; 6HR PCP:  0.39;

SARANAC LAKE   CLOUDY    75  68  78 W5        29.80S
6HR MIN TEMP:  71; 6HR MAX TEMP:  75; 6HR PCP:  0.14;

MASSENA        MOSUNNY   84  67  56 SW12      29.72F
6HR MIN TEMP:  72; 6HR MAX TEMP:  84; 6HR PCP:  0.31;

OGDENSBURG*    SUNNY     84  66  54 W8        29.74S
POTSDAM*       MOSUNNY   82  68  61 W15G22    29.75S
STARK FALLS*     N/A     79 N/A N/A W16         N/A
WATERTOWN      SUNNY     81  63  54 W15G24    29.79F
6HR MIN TEMP:  72; 6HR MAX TEMP:  82; 6HR PCP:  0.08;

FT DRUM        SUNNY     83  58  42 W15G22    29.79F
6HR MIN TEMP:  72; 6HR MAX TEMP:  83; 6HR PCP:  0.07;

ALBANY         RAIN      80  75  84 SW7       29.79S
6HR MIN TEMP:  77; 6HR MAX TEMP:  88; 6HR PCP:  0.14;

GLENS FALLS    LGT RAIN  74  72  93 S9        29.78S FOG
6HR MIN TEMP:  74; 6HR MAX TEMP:  83; 6HR PCP:  0.61;


$$
NHZ002-005-011-301900-
_____NEW HAMPSHIRE_____


CITY           SKY/WX    TMP DP  RH WIND       PRES   REMARKS
LEBANON        LGT RAIN  83  71  67 S10       29.77R
6HR MIN TEMP:  70; 6HR MAX TEMP:  88;

KEENE          PTSUNNY   86  70  58 SW12G20   29.80F HX  90
6HR MIN TEMP:  68; 6HR MAX TEMP:  88;

MT WASHINGTON  PTSUNNY   61  55  82 SW20        N/A
6HR MIN TEMP:  56; 6HR MAX TEMP:  64;

PLYMOUTH       FAIR      85  74  69 CALM      29.76F HX  91
6HR MIN TEMP:  65; 6HR MAX TEMP:  87;

WHITEFIELD     CLOUDY    83  67  58 SW3       29.78F
6HR MIN TEMP:  70; 6HR MAX TEMP:  86;


$$

_____REGIONAL QUEBEC LOCATIONS_____


CITY           SKY/WX    TMP DP  RH WIND       PRES   REMARKS
MONTREAL       PTSUNNY   77  72  83 SW10      29.70S
QUEBEC CITY    LGT RAIN  81  70  69 S6        29.67F
SHERBROOKE     HVY RAIN  72  70  94 W12G20    29.77R FOG

_____REGIONAL ONTARIO LOCATIONS_____


CITY           SKY/WX    TMP DP  RH WIND       PRES   REMARKS
OTTAWA         MOSUNNY   86  63  45 W15       29.71F

______KEY______
VSB  - VISIBILITY IN MILES
WCI  - WIND CHILL INDEX
HX   - HEAT INDEX
$$
NNNN



USA.gov is the U.S. government's official web portal to all federal, state and local government web resources and services.